sat.trackr.live / text

‹ back to catalog

STARLINK-2029

NORAD 48320 · 2021-036AW

PAYLOAD ACTIVE UNKNOWN

§ Identity

Operator
Country
US
Launch date
2021-04-29
Launch site
AFETR
Launch vehicle
Mass (kg)
RCS (m²)

Purposes: comms

External: N2YO · Heavens-Above · Gunter

§ Orbital elements

Epoch: 2026-09-19T15:45:54.390528Z

Period
94.01 min
Inclination
53.1602°
Eccentricity
0.0001477
Mean motion
15.31697214 rev/d
Perigee alt
469.7 km
Apogee alt
471.8 km
Semi-major
6,848.9 km
B*
-1.2065e-5
RAAN
278.7631°
Arg perigee
71.5666°
Mean anomaly
288.5496°
Rev number
29,775

§ Raw data

STARLINK-20291 48320U 21036AW  26262.65687952 -.00000740  00000+0 -12065-4 0  99952 48320  53.1602 278.7631 0001477  71.5666 288.5496 15.31697214297751

JSON: /api/v1/satellites/48320 · /tle

For live sub-satellite position, see the globe view (requires WebGL).

§ Visibility from observer

Set your observer location to see the next 7 days of passes ≥ 10°. The values pass through the URL so the page stays shareable.

No JS? Fill the form by hand. The geolocation button needs JavaScript.